Location: Kimberly
(42.5380°N, 114.3640°W)
Time: 00:30:03
(UTC-06:00)

OTV 5 (USA 277) - Visible Passes

Search period start: 27 April 2018 00:00
Search period end: 07 May 2018 00:00
Orbit: 308 x 325 km, 54.5° (Epoch: 25 April)

Date Brightness Start Highest point End Pass type
(mag) Time Alt. Az. Time Alt. Az. Time Alt. Az.
27 Apr ? 23:28:08 10° NNW 23:28:28 12° NNW 23:28:28 12° NNW visible
28 Apr ? 23:42:09 10° NW 23:42:13 10° NW 23:42:13 10° NW visible
29 Apr ? 22:22:52 10° NNW 22:24:30 14° NNE 22:25:05 14° NE visible
30 Apr ? 22:36:45 10° NNW 22:38:50 25° NNE 22:38:50 25° NNE visible
01 May ? 21:17:42 10° N 21:18:44 12° NNE 21:19:46 10° NE visible
01 May ? 22:50:50 10° NW 22:52:35 33° NNW 22:52:35 33° NNW visible
02 May ? 21:31:20 10° NNW 21:33:22 18° NNE 21:35:21 10° ENE visible
02 May ? 23:05:13 10° WNW 23:06:21 21° WNW 23:06:21 21° WNW visible
03 May ? 21:45:17 10° NW 21:47:51 36° NE 21:49:17 20° E visible
04 May ? 21:59:28 10° NW 22:02:10 79° SW 22:03:06 36° SE visible
05 May ? 22:14:01 10° WNW 22:16:20 25° SW 22:16:59 23° SSW visible
